Location: Newark
(44.4156°N, 12.1972°E)
Time: 02:53:04
(UTC+00:00)

STARLINK-1097 - Pass Details

Date: 31 January 2020
Orbit: 548 x 551 km, 53.0° (Epoch: 21 February)

Event Time Altitude Azimuth Distance (km) Brightness Sun altitude
Rises 18:12:38 0° 300° (WNW) 2,720 8.1 -20.5°
Reaches altitude 10° 18:14:58 10° 293° (WNW) 1,823 7.2 -20.9°
Maximum altitude 18:18:51 40° 223° (SW) 810 4.8 -21.6°
Enters shadow 18:20:47 24° 169° (S) 1,145 5.1 -22.0°
